Time,TemperatureF,DewpointF,PressureIn,WindDirection,WindDirectionDegrees,WindSpeedMPH,WindSpeedGustMPH,Humidity,HourlyPrecipIn,Conditions,Clouds,dailyrainin,SolarRadiationWatts/m^2,SoftwareType,DateUTC
2013-04-29 00:05:00,75.9,66.0,30.01,ESE,107,0.0,-999.0,71,-99.99,,,0.00,0,weatherlink.com 1.10,2013-04-29 04:05:00,
2013-04-29 00:20:00,75.9,66.0,30.02,East,92,4.0,-999.0,71,-99.99,,,0.00,0,weatherlink.com 1.10,2013-04-29 04:20:00,
2013-04-29 00:35:00,75.9,65.0,30.01,ESE,119,5.0,-999.0,70,-99.99,,,0.00,0,weatherlink.com 1.10,2013-04-29 04:35:00,
2013-04-29 00:50:00,75.8,64.0,30.01,SE,131,0.0,-999.0,68,-99.99,,,0.00,0,weatherlink.com 1.10,2013-04-29 04:50:00,
2013-04-29 01:05:00,76.0,66.0,30.00,East,80,0.0,-999.0,70,-99.99,,,0.00,0,weatherlink.com 1.10,2013-04-29 05:05:00,
2013-04-29 01:21:00,75.8,65.0,30.00,East,101,4.0,-999.0,70,-99.99,,,0.00,0,weatherlink.com 1.10,2013-04-29 05:21:00,
2013-04-29 01:36:00,75.5,65.0,29.99,ESE,109,9.0,-999.0,70,-99.99,,,0.00,0,weatherlink.com 1.10,2013-04-29 05:36:00,
2013-04-29 01:51:00,75.3,65.0,29.99,East,88,2.0,-999.0,70,-99.99,,,0.00,0,weatherlink.com 1.10,2013-04-29 05:51:00,
2013-04-29 02:06:00,75.3,65.0,29.99,ESE,103,4.0,-999.0,71,-99.99,,,0.00,0,weatherlink.com 1.10,2013-04-29 06:06:00,
2013-04-29 02:21:00,75.3,66.0,29.99,East,101,6.0,-999.0,72,-99.99,,,0.00,0,weatherlink.com 1.10,2013-04-29 06:21:00,
2013-04-29 02:36:00,75.4,66.0,29.99,East,88,3.0,-999.0,72,-99.99,,,0.00,0,weatherlink.com 1.10,2013-04-29 06:36:00,
2013-04-29 02:51:00,75.7,66.0,29.99,East,96,4.0,-999.0,73,-99.99,,,0.00,0,weatherlink.com 1.10,2013-04-29 06:51:00,
2013-04-29 03:06:00,75.6,66.0,29.98,East,97,5.0,-999.0,73,-99.99,,,0.00,0,weatherlink.com 1.10,2013-04-29 07:06:00,
2013-04-29 03:21:00,75.7,66.0,29.98,East,86,3.0,-999.0,73,-99.99,,,0.00,0,weatherlink.com 1.10,2013-04-29 07:21:00,
2013-04-29 03:36:00,75.6,66.0,29.97,ESE,107,4.0,-999.0,72,-99.99,,,0.00,0,weatherlink.com 1.10,2013-04-29 07:36:00,
2013-04-29 03:51:00,75.4,66.0,29.97,East,88,1.0,-999.0,72,-99.99,,,0.00,0,weatherlink.com 1.10,2013-04-29 07:51:00,
2013-04-29 04:06:00,75.2,65.0,29.98,East,94,1.0,-999.0,71,-99.99,,,0.00,0,weatherlink.com 1.10,2013-04-29 08:06:00,
2013-04-29 04:21:00,75.4,66.0,29.98,SE,129,4.0,-999.0,72,-99.99,,,0.00,0,weatherlink.com 1.10,2013-04-29 08:21:00,
2013-04-29 04:36:00,75.5,65.0,29.98,ENE,70,3.0,-999.0,71,-99.99,,,0.00,0,weatherlink.com 1.10,2013-04-29 08:36:00,
2013-04-29 04:51:00,75.6,66.0,29.98,East,101,0.0,-999.0,71,-99.99,,,0.00,0,weatherlink.com 1.10,2013-04-29 08:51:00,
2013-04-29 05:06:00,75.5,66.0,29.98,ESE,113,0.0,-999.0,72,-99.99,,,0.00,0,weatherlink.com 1.10,2013-04-29 09:06:00,
2013-04-29 05:21:00,75.6,66.0,29.98,ESE,123,0.0,-999.0,73,-99.99,,,0.00,0,weatherlink.com 1.10,2013-04-29 09:21:00,
2013-04-29 05:36:00,75.5,67.0,29.98,ENE,68,0.0,-999.0,75,-99.99,,,0.00,0,weatherlink.com 1.10,2013-04-29 09:36:00,
2013-04-29 05:51:00,75.2,67.0,29.98,ESE,106,5.0,-999.0,75,-99.99,,,0.00,0,weatherlink.com 1.10,2013-04-29 09:51:00,
2013-04-29 06:06:00,75.3,67.0,29.98,East,79,0.0,-999.0,76,-99.99,,,0.00,0,weatherlink.com 1.10,2013-04-29 10:06:00,
2013-04-29 06:21:00,75.3,67.0,29.99,East,82,2.0,-999.0,76,-99.99,,,0.00,0,weatherlink.com 1.10,2013-04-29 10:21:00,
2013-04-29 06:36:00,75.3,68.0,29.99,East,81,3.0,-999.0,77,-99.99,,,0.00,0,weatherlink.com 1.10,2013-04-29 10:36:00,
2013-04-29 06:51:00,75.3,68.0,29.99,SE,139,0.0,-999.0,78,-99.99,,,0.00,7,weatherlink.com 1.10,2013-04-29 10:51:00,
2013-04-29 07:06:00,75.2,68.0,30.00,SSE,155,1.0,-999.0,78,-99.99,,,0.00,25,weatherlink.com 1.10,2013-04-29 11:06:00,
2013-04-29 07:21:00,75.5,68.0,30.00,ESE,109,0.0,-999.0,77,-99.99,,,0.00,83,weatherlink.com 1.10,2013-04-29 11:21:00,
2013-04-29 07:36:00,76.1,68.0,30.00,East,79,3.0,-999.0,76,-99.99,,,0.00,139,weatherlink.com 1.10,2013-04-29 11:36:00,
2013-04-29 07:51:00,76.9,69.0,30.00,East,95,0.0,-999.0,76,-99.99,,,0.00,225,weatherlink.com 1.10,2013-04-29 11:51:00,
2013-04-29 08:06:00,77.2,69.0,30.01,SE,138,5.0,-999.0,75,-99.99,,,0.00,118,weatherlink.com 1.10,2013-04-29 12:06:00,
2013-04-29 08:21:00,77.1,69.0,30.01,ESE,109,0.0,-999.0,75,-99.99,,,0.00,109,weatherlink.com 1.10,2013-04-29 12:21:00,
2013-04-29 08:36:00,77.3,68.0,30.01,SE,135,6.0,-999.0,74,-99.99,,,0.00,167,weatherlink.com 1.10,2013-04-29 12:36:00,
2013-04-29 08:51:00,77.9,69.0,30.01,ESE,106,4.0,-999.0,73,-99.99,,,0.00,290,weatherlink.com 1.10,2013-04-29 12:51:00,
2013-04-29 09:06:00,78.5,68.0,30.01,ESE,120,5.0,-999.0,71,-99.99,,,0.00,373,weatherlink.com 1.10,2013-04-29 13:06:00,
2013-04-29 09:21:00,79.3,69.0,30.01,East,85,5.0,-999.0,71,-99.99,,,0.00,548,weatherlink.com 1.10,2013-04-29 13:21:00,
2013-04-29 09:36:00,79.4,69.0,30.01,ESE,103,5.0,-999.0,70,-99.99,,,0.00,318,weatherlink.com 1.10,2013-04-29 13:36:00,
2013-04-29 09:51:00,79.3,69.0,30.01,East,97,0.0,-999.0,71,-99.99,,,0.00,316,weatherlink.com 1.10,2013-04-29 13:51:00,
2013-04-29 10:06:00,79.5,70.0,30.02,ESE,117,6.0,-999.0,72,-99.99,,,0.00,248,weatherlink.com 1.10,2013-04-29 14:06:00,
2013-04-29 10:21:00,79.6,69.0,30.02,SE,126,7.0,-999.0,71,-99.99,,,0.00,578,weatherlink.com 1.10,2013-04-29 14:21:00,
2013-04-29 10:36:00,80.6,70.0,30.03,East,81,1.0,-999.0,70,-99.99,,,0.00,287,weatherlink.com 1.10,2013-04-29 14:36:00,
2013-04-29 10:51:00,80.2,70.0,30.03,ESE,102,2.0,-999.0,71,-99.99,,,0.00,192,weatherlink.com 1.10,2013-04-29 14:51:00,
2013-04-29 11:07:00,82.0,71.0,30.03,SE,145,5.0,-999.0,69,-99.99,,,0.00,821,weatherlink.com 1.10,2013-04-29 15:07:00,
2013-04-29 11:22:00,81.7,70.0,30.03,East,93,6.0,-999.0,68,-99.99,,,0.00,842,weatherlink.com 1.10,2013-04-29 15:22:00,
2013-04-29 11:37:00,82.4,71.0,30.02,ENE,72,6.0,-999.0,68,-99.99,,,0.00,928,weatherlink.com 1.10,2013-04-29 15:37:00,
2013-04-29 11:52:00,83.2,72.0,30.02,SE,124,8.0,-999.0,68,-99.99,,,0.00,979,weatherlink.com 1.10,2013-04-29 15:52:00,
2013-04-29 12:07:00,83.7,72.0,30.02,East,85,2.0,-999.0,67,-99.99,,,0.00,735,weatherlink.com 1.10,2013-04-29 16:07:00,
2013-04-29 12:22:00,83.2,71.0,30.02,East,89,0.0,-999.0,67,-99.99,,,0.00,445,weatherlink.com 1.10,2013-04-29 16:22:00,
2013-04-29 12:37:00,82.4,71.0,30.02,ENE,78,3.0,-999.0,69,-99.99,,,0.00,410,weatherlink.com 1.10,2013-04-29 16:37:00,
2013-04-29 12:52:00,82.0,71.0,30.01,East,101,5.0,-999.0,70,-99.99,,,0.00,431,weatherlink.com 1.10,2013-04-29 16:52:00,
2013-04-29 13:07:00,81.1,72.0,30.00,SE,140,0.0,-999.0,73,-99.99,,,0.00,366,weatherlink.com 1.10,2013-04-29 17:07:00,
2013-04-29 13:22:00,83.0,72.0,30.00,South,169,6.0,-999.0,70,-99.99,,,0.00,823,weatherlink.com 1.10,2013-04-29 17:22:00,
2013-04-29 13:37:00,81.1,71.0,30.00,ESE,109,2.0,-999.0,72,-99.99,,,0.00,297,weatherlink.com 1.10,2013-04-29 17:37:00,
2013-04-29 13:52:00,80.2,71.0,30.00,ESE,113,5.0,-999.0,74,-99.99,,,0.00,155,weatherlink.com 1.10,2013-04-29 17:52:00,
2013-04-29 14:07:00,79.5,71.0,29.99,SE,137,0.0,-999.0,75,-99.99,,,0.00,86,weatherlink.com 1.10,2013-04-29 18:07:00,
2013-04-29 14:22:00,78.8,71.0,29.99,East,82,3.0,-999.0,76,-99.99,,,0.00,84,weatherlink.com 1.10,2013-04-29 18:22:00,
2013-04-29 14:37:00,78.6,70.0,29.97,East,101,6.0,-999.0,76,-99.99,,,0.00,167,weatherlink.com 1.10,2013-04-29 18:37:00,
2013-04-29 14:52:00,79.2,71.0,29.97,ESE,116,4.0,-999.0,77,-99.99,,,0.00,199,weatherlink.com 1.10,2013-04-29 18:52:00,
2013-04-29 15:07:00,79.4,71.0,29.98,ESE,117,5.0,-999.0,76,-99.99,,,0.00,156,weatherlink.com 1.10,2013-04-29 19:07:00,
2013-04-29 15:22:00,79.2,71.0,29.98,SE,133,5.0,-999.0,76,-99.99,,,0.00,172,weatherlink.com 1.10,2013-04-29 19:22:00,
2013-04-29 15:37:00,78.8,71.0,29.98,East,84,2.0,-999.0,77,-99.99,,,0.00,118,weatherlink.com 1.10,2013-04-29 19:37:00,
2013-04-29 15:52:00,78.7,71.0,29.98,ESE,109,0.0,-999.0,78,-99.99,,,0.00,25,weatherlink.com 1.10,2013-04-29 19:52:00,
2013-04-29 16:22:00,77.6,72.0,29.98,ESE,106,0.0,-999.0,82,-99.99,,,0.00,30,weatherlink.com 1.10,2013-04-29 20:22:00,
2013-04-29 16:37:00,76.9,71.0,29.98,ESE,105,0.0,-999.0,83,-99.99,,,0.00,28,weatherlink.com 1.10,2013-04-29 20:37:00,
2013-04-29 16:52:00,76.3,72.0,29.97,SE,144,0.0,-999.0,86,-99.99,,,0.04,26,weatherlink.com 1.10,2013-04-29 20:52:00,
2013-04-29 17:07:00,76.0,72.0,29.96,SE,142,0.0,-999.0,87,-99.99,,,0.08,32,weatherlink.com 1.10,2013-04-29 21:07:00,
2013-04-29 17:22:00,75.4,72.0,29.96,ESE,103,0.0,-999.0,88,-99.99,,,0.10,40,weatherlink.com 1.10,2013-04-29 21:22:00,
2013-04-29 17:37:00,75.3,72.0,29.95,East,82,0.0,-999.0,89,-99.99,,,0.12,25,weatherlink.com 1.10,2013-04-29 21:37:00,
2013-04-29 17:52:00,75.0,72.0,29.94,SE,126,0.0,-999.0,90,-99.99,,,0.12,35,weatherlink.com 1.10,2013-04-29 21:52:00,
2013-04-29 18:07:00,74.8,72.0,29.93,ESE,113,0.0,-999.0,91,-99.99,,,0.12,30,weatherlink.com 1.10,2013-04-29 22:07:00,
2013-04-29 18:22:00,74.6,72.0,29.94,ESE,123,0.0,-999.0,91,-99.99,,,0.12,28,weatherlink.com 1.10,2013-04-29 22:22:00,
2013-04-29 18:37:00,74.9,72.0,29.94,ESE,123,0.0,-999.0,91,-99.99,,,0.13,37,weatherlink.com 1.10,2013-04-29 22:37:00,
2013-04-29 18:52:00,74.8,72.0,29.94,ESE,109,0.0,-999.0,91,-99.99,,,0.13,53,weatherlink.com 1.10,2013-04-29 22:52:00,
2013-04-29 19:07:00,74.7,72.0,29.94,ENE,69,0.0,-999.0,92,-99.99,,,0.13,40,weatherlink.com 1.10,2013-04-29 23:07:00,
2013-04-29 19:22:00,74.7,72.0,29.95,East,88,0.0,-999.0,92,-99.99,,,0.13,40,weatherlink.com 1.10,2013-04-29 23:22:00,
2013-04-29 19:37:00,74.4,72.0,29.95,ESE,109,0.0,-999.0,92,-99.99,,,0.13,7,weatherlink.com 1.10,2013-04-29 23:37:00,
2013-04-29 19:52:00,74.4,72.0,29.95,ESE,109,0.0,-999.0,92,-99.99,,,0.13,0,weatherlink.com 1.10,2013-04-29 23:52:00,
2013-04-29 20:07:00,74.1,71.0,29.95,ESE,109,0.0,-999.0,91,-99.99,,,0.13,0,weatherlink.com 1.10,2013-04-30 00:07:00,
2013-04-29 20:22:00,74.5,72.0,29.96,ESE,117,4.0,-999.0,91,-99.99,,,0.13,0,weatherlink.com 1.10,2013-04-30 00:22:00,
2013-04-29 20:37:00,74.9,72.0,29.96,East,98,0.0,-999.0,90,-99.99,,,0.13,0,weatherlink.com 1.10,2013-04-30 00:37:00,
2013-04-29 20:52:00,75.2,72.0,29.96,SSE,158,5.0,-999.0,89,-99.99,,,0.13,0,weatherlink.com 1.10,2013-04-30 00:52:00,
2013-04-29 21:07:00,75.2,72.0,29.96,SE,133,1.0,-999.0,89,-99.99,,,0.13,0,weatherlink.com 1.10,2013-04-30 01:07:00,
2013-04-29 21:22:00,75.1,71.0,29.97,SE,134,0.0,-999.0,88,-99.99,,,0.13,0,weatherlink.com 1.10,2013-04-30 01:22:00,
2013-04-29 21:37:00,75.1,71.0,29.96,SE,130,4.0,-999.0,87,-99.99,,,0.13,0,weatherlink.com 1.10,2013-04-30 01:37:00,
2013-04-29 21:52:00,75.3,71.0,29.96,East,80,10.0,-999.0,87,-99.99,,,0.13,0,weatherlink.com 1.10,2013-04-30 01:52:00,
2013-04-29 22:07:00,75.4,72.0,29.95,ENE,71,2.0,-999.0,88,-99.99,,,0.13,0,weatherlink.com 1.10,2013-04-30 02:07:00,
2013-04-29 22:22:00,75.5,72.0,29.96,ESE,113,0.0,-999.0,88,-99.99,,,0.13,0,weatherlink.com 1.10,2013-04-30 02:22:00,
2013-04-29 22:37:00,75.4,72.0,29.96,ESE,111,0.0,-999.0,88,-99.99,,,0.13,0,weatherlink.com 1.10,2013-04-30 02:37:00,
2013-04-29 22:52:00,75.5,72.0,29.96,ESE,111,2.0,-999.0,88,-99.99,,,0.13,0,weatherlink.com 1.10,2013-04-30 02:52:00,
2013-04-29 23:07:00,75.6,72.0,29.96,ESE,120,0.0,-999.0,88,-99.99,,,0.13,0,weatherlink.com 1.10,2013-04-30 03:07:00,
2013-04-29 23:22:00,75.5,71.0,29.96,SE,125,0.0,-999.0,87,-99.99,,,0.13,0,weatherlink.com 1.10,2013-04-30 03:22:00,
2013-04-29 23:37:00,75.5,71.0,29.96,ESE,113,1.0,-999.0,87,-99.99,,,0.13,0,weatherlink.com 1.10,2013-04-30 03:37:00,
2013-04-29 23:52:00,75.6,72.0,29.97,SE,140,0.0,-999.0,87,-99.99,,,0.00,0,weatherlink.com 1.10,2013-04-30 03:52:00,